GW0795 Weather Reports


time (UTC)temp
F
wind
direction
speed
knots
gust
knots
rain 1hr
in
rain 24hr
in
rain mn
in
humidity
%
barometer
mb
20260831203503 71 5 1.7 5.2 0.00 0.00 0.00 57 1011.1
20260831203007 71 5 1.7 5.2 0.00 0.00 0.00 57 1011.1
20260831202507 72 292 2.6 5.2 0.00 0.00 0.00 56 1011.1
20260831202008 72 11 1.7 5.2 0.00 0.00 0.00 56 1011.2
20260831201517 71 38 1.7 6.1 0.00 0.00 0.00 56 1011.3
20260831201008 72 22 3.5 6.1 0.00 0.00 0.00 56 1011.4
20260831200510 72 17 1.7 5.2 0.00 0.00 0.00 58 1011.4
20260831200030 71 45 2.6 7.0 0.00 0.00 0.00 58 1011.5
20260831195513 71 286 4.3 7.0 0.00 0.00 0.00 58 1011.6
20260831195016 70 352 3.5 9.6 0.00 0.00 0.00 60 1011.6
20260831194527 69 352 2.6 9.6 0.00 0.00 0.00 60 1011.7
20260831194016 69 35 4.3 8.7 0.00 0.00 0.00 61 1011.8
20260831193516 70 37 6.1 8.7 0.00 0.00 0.00 60 1011.9
20260831193011 69 296 2.6 11.3 0.00 0.00 0.00 62 1011.9
20260831192507 69 5 1.7 11.3 0.00 0.00 0.00 63 1011.9
20260831192007 69 45 3.5 8.7 0.00 0.00 0.00 62 1012.0
20260831191510 69 28 4.3 8.7 0.00 0.00 0.00 62 1012.2
20260831191008 69 352 1.7 5.2 0.00 0.00 0.00 62 1012.3
20260831190509 69 49 3.5 7.0 0.00 0.00 0.00 60 1012.3
20260831190018 69 350 2.6 7.0 0.00 0.00 0.00 60 1012.4
20260831185514 69 25 0.9 7.8 0.00 0.00 0.00 62 1012.6
20260831185014 68 352 4.3 7.8 0.00 0.00 0.00 62 1012.6
20260831184531 67 319 2.6 7.8 0.00 0.00 0.00 66 1012.6
20260831184016 66 350 1.7 7.0 0.00 0.00 0.00 67 1012.6
20260831183517 66 308 3.5 7.0 0.00 0.00 0.00 67 1012.6
20260831183027 66 276 2.6 6.1 0.00 0.00 0.00 67 1012.7
20260831182517 65 322 2.6 7.0 0.00 0.00 0.00 67 1012.8
20260831182018 65 255 1.7 7.0 0.00 0.00 0.00 68 1012.8
20260831181512 65 320 2.6 7.0 0.00 0.00 0.00 68 1012.8
20260831181011 65 255 1.7 6.1 0.00 0.00 0.00 69 1012.9
20260831180510 65 313 2.6 7.0 0.00 0.00 0.00 69 1012.9
20260831180017 65 352 3.5 7.0 0.00 0.00 0.00 66 1013.0
20260831175511 66 352 1.7 7.0 0.00 0.00 0.00 64 1013.0
20260831175012 66 322 2.6 7.0 0.00 0.00 0.00 65 1013.0
20260831174522 66 20 1.7 4.3 0.00 0.00 0.00 66 1013.1
20260831174017 65 30 2.6 7.0 0.00 0.00 0.00 66 1013.1
20260831173515 65 50 1.7 7.0 0.00 0.00 0.00 67 1013.2
20260831173027 65 327 1.7 5.2 0.00 0.00 0.00 69 1013.3
20260831172516 65 24 2.6 5.2 0.00 0.00 0.00 69 1013.3
20260831172017 64 83 1.7 6.1 0.00 0.00 0.00 71 1013.3
20260831171533 63 32 1.7 6.1 0.00 0.00 0.00 71 1013.3
20260831171022 63 352 2.6 6.1 0.00 0.00 0.00 72 1013.4
20260831170519 63 38 2.6 6.1 0.00 0.00 0.00 72 1013.4
20260831170017 63 323 1.7 4.3 0.00 0.00 0.00 72 1013.4
20260831165511 62 28 1.7 5.2 0.00 0.00 0.00 73 1013.4
20260831165009 62 57 2.6 7.8 0.00 0.00 0.00 73 1013.5
20260831164518 62 103 1.7 7.8 0.00 0.00 0.00 73 1013.6
20260831164014 62 345 3.5 7.8 0.00 0.00 0.00 75 1013.6
20260831163514 61 13 3.5 7.8 0.00 0.00 0.00 75 1013.6
20260831163025 61 340 2.6 7.8 0.00 0.00 0.00 76 1013.6
20260831162512 61 71 2.6 5.2 0.00 0.00 0.00 77 1013.7
20260831162016 61 348 2.6 5.2 0.00 0.00 0.00 79 1013.8
20260831161531 61 9 2.6 4.3 0.00 0.00 0.00 79 1013.8
20260831161014 60 342 1.7 7.0 0.00 0.00 0.00 80 1013.9
20260831160518 60 348 4.3 7.0 0.00 0.00 0.00 80 1013.9
20260831160042 59 352 0.9 4.3 0.00 0.00 0.00 82 1013.9
20260831155519 60 19 1.7 7.0 0.00 0.00 0.00 82 1013.9
20260831155016 59 16 1.7 7.8 0.00 0.00 0.00 84 1014.0
20260831154541 59 338 4.3 7.8 0.00 0.00 0.00 84 1014.0
20260831154013 58 19 1.7 6.1 0.00 0.00 0.00 85 1014.1
20260831153516 58 352 1.7 7.0 0.00 0.00 0.00 86 1014.1
20260831153044 57 340 4.3 7.0 0.00 0.00 0.00 86 1014.1
20260831152506 57 65 1.7 6.1 0.00 0.00 0.00 86 1014.2
20260831152006 57 324 3.5 5.2 0.00 0.00 0.00 86 1014.2
20260831151506 57 33 1.7 4.3 0.00 0.00 0.00 86 1014.3
20260831151003 57 26 1.7 3.5 0.00 0.00 0.00 87 1014.4
20260831150505 57 360 0.0 2.6 0.00 0.00 0.00 87 1014.4
20260831150011 57 9 1.7 2.6 0.00 0.00 0.00 87 1014.3
20260831145507 57 9 0.9 2.6 0.00 0.00 0.00 88 1014.2
20260831145008 56 348 0.9 2.6 0.00 0.00 0.00 88 1014.2
20260831144513 56 13 0.0 1.7 0.00 0.00 0.00 88 1014.0
20260831144009 56 352 0.0 1.7 0.00 0.00 0.00 89 1014.0
20260831143512 56 9 0.0 1.7 0.00 0.00 0.00 89 1014.0
20260831143017 56 17 0.0 0.0 0.00 0.00 0.00 89 1014.1
20260831142511 56 28 0.0 3.5 0.00 0.00 0.00 90 1014.0
20260831142008 55 28 0.0 3.5 0.00 0.00 0.00 90 1014.1
20260831141511 55 9 0.0 3.5 0.00 0.00 0.00 91 1014.2
20260831141002 54 24 0.0 0.9 0.00 0.00 0.00 91 1014.1
20260831140504 53 26 0.0 0.0 0.00 0.00 0.00 91 1014.2
20260831140013 53 28 0.0 0.0 0.00 0.00 0.00 90 1014.2
20260831135506 53 28 0.0 0.0 0.00 0.00 0.00 91 1014.1
20260831135005 53 28 0.0 0.0 0.00 0.00 0.00 90 1014.1
20260831134514 54 28 0.0 0.0 0.00 0.00 0.00 90 1014.1
20260831134011 54 28 0.0 0.0 0.00 0.00 0.00 89 1014.0
20260831133508 54 28 0.0 0.0 0.00 0.00 0.00 90 1014.0
20260831133016 54 28 0.0 0.0 0.00 0.00 0.00 90 1013.9
20260831132514 54 28 0.0 0.0 0.00 0.00 0.00 89 1013.9
20260831132012 54 28 0.0 0.9 0.00 0.00 0.00 89 1014.0
20260831131527 55 28 0.0 0.9 0.00 0.00 0.00 89 1014.0
20260831131014 55 28 0.0 1.7 0.00 0.00 0.00 89 1014.1
20260831130511 55 28 0.0 1.7 0.00 0.00 0.00 89 1014.1
20260831130007 55 62 0.0 0.0 0.00 0.00 0.00 89 1014.1
20260831125504 55 61 0.0 0.9 0.00 0.00 0.00 89 1014.2
20260831125006 55 61 0.0 1.7 0.00 0.00 0.00 89 1014.2
20260831124508 55 75 0.0 1.7 0.00 0.00 0.00 89 1014.2
20260831124005 55 38 0.0 0.0 0.00 0.00 0.00 89 1014.1
20260831123515 55 43 0.0 0.0 0.00 0.00 0.00 89 1014.2
20260831123026 55 39 0.0 0.0 0.00 0.00 0.00 89 1014.2
20260831122514 55 39 0.0 0.0 0.00 0.00 0.00 88 1014.2
20260831122012 55 32 0.0 0.0 0.00 0.00 0.00 88 1014.3
20260831121529 55 38 0.0 0.0 0.00 0.00 0.00 88 1014.4
20260831121018 55 38 0.0 0.0 0.00 0.00 0.00 88 1014.3
20260831120516 55 352 0.0 1.7 0.00 0.00 0.00 88 1014.4
20260831120043 55 10 0.0 2.6 0.00 0.00 0.00 87 1014.5
20260831115518 56 10 0.0 2.6 0.00 0.00 0.00 87 1014.5
20260831115021 56 16 0.9 2.6 0.00 0.00 0.00 87 1014.5
20260831114531 56 352 0.0 2.6 0.00 0.00 0.00 87 1014.6
20260831114006 56 352 0.0 2.6 0.00 0.00 0.00 87 1014.6
20260831113509 56 9 0.0 1.7 0.00 0.00 0.00 86 1014.7
20260831113012 56 9 0.0 1.7 0.00 0.00 0.00 86 1014.7
20260831112509 56 5 0.9 1.7 0.00 0.00 0.00 86 1014.8
20260831112011 56 19 0.9 1.7 0.00 0.00 0.00 85 1014.9
20260831111518 56 352 0.0 3.5 0.00 0.00 0.00 85 1014.9
20260831111013 57 348 1.7 3.5 0.00 0.00 0.00 85 1014.9
20260831110512 57 35 0.9 3.5 0.00 0.00 0.00 85 1015.0
20260831110024 57 17 0.0 4.3 0.00 0.00 0.00 84 1015.0
20260831105513 57 31 0.0 4.3 0.00 0.00 0.00 84 1015.0
20260831105013 57 352 0.0 1.7 0.00 0.00 0.00 84 1015.1
20260831104537 57 345 0.0 2.6 0.00 0.00 0.00 83 1015.1
20260831104014 57 19 0.9 2.6 0.00 0.00 0.00 83 1015.1
20260831103513 57 15 0.0 1.7 0.00 0.00 0.00 83 1015.1
20260831103026 57 49 0.9 1.7 0.00 0.00 0.00 82 1015.1
20260831102506 57 54 0.9 1.7 0.00 0.00 0.00 82 1015.1
20260831102011 57 49 0.0 2.6 0.00 0.00 0.00 81 1015.2
20260831101522 57 57 0.9 2.6 0.00 0.00 0.00 81 1015.3
20260831101010 57 19 0.0 1.7 0.00 0.00 0.00 81 1015.3
20260831100513 57 18 0.9 1.7 0.00 0.00 0.00 80 1015.3
20260831100026 57 32 0.9 1.7 0.00 0.00 0.00 80 1015.4
20260831095514 57 44 0.0 3.5 0.00 0.00 0.00 79 1015.3
20260831095014 58 30 0.9 3.5 0.00 0.00 0.00 79 1015.4
20260831094530 58 11 0.0 7.0 0.00 0.00 0.00 79 1015.4
20260831094017 58 22 2.6 7.0 0.00 0.00 0.00 78 1015.5
20260831093516 58 5 0.9 5.2 0.00 0.00 0.00 78 1015.7
20260831093030 58 16 0.9 3.5 0.00 0.00 0.00 78 1015.8
20260831092514 58 21 0.9 3.5 0.00 0.00 0.00 78 1015.8
20260831092015 58 48 0.9 2.6 0.00 0.00 0.00 78 1015.9
20260831091529 58 36 0.0 1.7 0.00 0.00 0.00 78 1015.9
20260831091009 58 5 0.0 1.7 0.00 0.00 0.00 78 1016.0
20260831090510 58 5 0.0 1.7 0.00 0.00 0.00 78 1015.9
20260831090021 58 352 0.9 3.5 0.00 0.00 0.00 77 1015.9
20260831085514 58 67 0.9 3.5 0.00 0.00 0.00 78 1015.9
20260831085016 58 44 0.9 2.6 0.00 0.00 0.00 77 1016.0
20260831084523 58 65 0.9 3.5 0.00 0.00 0.00 78 1016.0
20260831084015 58 11 1.7 3.5 0.00 0.00 0.00 78 1016.0
20260831083514 58 350 1.7 3.5 0.00 0.00 0.00 78 1016.0
20260831083030 58 5 0.0 2.6 0.00 0.00 0.00 78 1016.0
20260831082504 58 29 0.9 2.6 0.00 0.00 0.00 78 1016.1
20260831082006 58 56 0.0 2.6 0.00 0.00 0.00 77 1016.2
20260831081515 58 17 0.0 2.6 0.00 0.00 0.00 78 1016.2
20260831081006 58 32 0.0 2.6 0.00 0.00 0.00 77 1016.1
20260831080509 58 360 0.0 1.7 0.00 0.00 0.00 77 1016.2
20260831080015 58 360 0.0 1.7 0.00 0.00 0.00 77 1016.3
20260831075510 58 9 0.0 0.0 0.00 0.00 0.00 77 1016.3
20260831075010 58 348 0.0 1.7 0.00 0.00 0.00 77 1016.4
20260831074521 58 348 0.0 1.7 0.00 0.00 0.00 77 1016.4
20260831074005 58 346 0.9 1.7 0.00 0.00 0.00 76 1016.4
20260831073504 59 346 0.0 1.7 0.00 0.00 0.00 76 1016.5
20260831073005 59 336 0.0 1.7 0.00 0.00 0.00 76 1016.5
20260831072503 59 9 0.0 0.0 0.00 0.00 0.00 76 1016.6
20260831072004 59 20 0.0 0.0 0.00 0.00 0.00 76 1016.6
20260831071507 59 20 0.0 0.0 0.00 0.00 0.00 76 1016.5
20260831071006 59 20 0.0 1.7 0.00 0.00 0.00 75 1016.6
20260831070506 59 352 0.0 1.7 0.00 0.00 0.00 75 1016.6
20260831070022 59 5 0.0 0.9 0.00 0.00 0.00 75 1016.7
20260831065511 59 5 0.0 1.7 0.00 0.00 0.00 75 1016.8
20260831065010 59 9 0.0 1.7 0.00 0.00 0.00 75 1016.8
20260831064518 59 5 0.0 1.7 0.00 0.00 0.00 75 1016.8
20260831064017 59 352 0.0 1.7 0.00 0.00 0.00 74 1016.8
20260831063516 59 352 0.0 1.7 0.00 0.00 0.00 74 1016.9
20260831063027 60 352 0.0 1.7 0.00 0.00 0.00 73 1017.0
20260831062517 60 352 0.0 1.7 0.00 0.00 0.00 73 1017.1
20260831062004 60 352 0.0 1.7 0.00 0.00 0.00 72 1017.1
20260831061508 60 36 0.0 1.7 0.00 0.00 0.00 72 1017.2
20260831061007 60 17 0.0 1.7 0.00 0.00 0.00 71 1017.2
20260831060510 61 42 0.0 1.7 0.00 0.00 0.00 71 1017.1
20260831060015 61 42 0.0 1.7 0.00 0.00 0.00 70 1017.1
20260831055506 61 59 0.0 1.7 0.00 0.00 0.00 70 1017.1
20260831055013 61 51 0.0 1.7 0.00 0.00 0.00 70 1017.2
20260831054517 61 42 0.0 1.7 0.00 0.00 0.00 70 1017.2
20260831054010 61 42 0.0 1.7 0.00 0.00 0.00 69 1017.3
20260831053515 61 22 0.9 1.7 0.00 0.00 0.00 69 1017.5
20260831053027 61 79 0.0 2.6 0.00 0.00 0.00 68 1017.5
20260831052515 61 61 0.9 2.6 0.00 0.00 0.00 68 1017.6
20260831052016 61 348 0.9 2.6 0.00 0.00 0.00 67 1017.6
20260831051545 61 15 0.0 4.3 0.00 0.00 0.00 67 1017.6
20260831051014 62 40 0.9 4.3 0.00 0.00 0.00 67 1017.6
20260831050503 62 53 1.7 3.5 0.00 0.00 0.00 66 1017.7
20260831050008 62 11 0.0 4.3 0.00 0.00 0.00 66 1017.7
20260831045507 62 352 1.7 4.3 0.00 0.00 0.00 66 1017.7
20260831045006 62 360 1.7 2.6 0.00 0.00 0.00 66 1017.8
20260831044515 62 16 0.0 1.7 0.00 0.00 0.00 66 1017.8
20260831044009 62 42 0.0 2.6 0.00 0.00 0.00 66 1017.8
20260831043510 62 42 0.0 2.6 0.00 0.00 0.00 66 1017.9
20260831043024 62 49 0.0 0.0 0.00 0.00 0.00 65 1017.8
20260831042512 62 49 0.0 1.7 0.00 0.00 0.00 65 1017.9
20260831042012 62 49 0.0 1.7 0.00 0.00 0.00 64 1017.9
20260831041533 62 33 0.0 1.7 0.00 0.00 0.00 64 1017.9
20260831041014 63 352 0.9 1.7 0.00 0.00 0.00 63 1017.8
20260831040516 63 342 0.9 1.7 0.00 0.00 0.00 62 1017.8
20260831040042 63 5 0.9 1.7 0.00 0.00 0.00 62 1017.8
20260831035514 63 5 0.0 1.7 0.00 0.00 0.00 62 1017.8
20260831035008 63 5 0.9 2.6 0.00 0.00 0.00 61 1017.8
20260831034513 64 350 0.9 2.6 0.00 0.00 0.00 61 1017.8
20260831034008 64 24 0.0 2.6 0.00 0.00 0.00 60 1017.8
20260831033509 64 352 0.9 2.6 0.00 0.00 0.00 60 1017.8
20260831033016 64 23 0.9 2.6 0.00 0.00 0.00 61 1017.8
20260831032513 64 333 0.0 0.0 0.00 0.00 0.00 61 1017.7
20260831032012 64 320 0.0 1.7 0.00 0.00 0.00 60 1017.7
20260831031525 64 9 0.0 1.7 0.00 0.00 0.00 60 1017.8
20260831031017 64 9 0.0 0.9 0.00 0.00 0.00 59 1017.7
20260831030516 64 9 0.0 1.7 0.00 0.00 0.00 59 1017.8
20260831030030 65 9 0.0 1.7 0.00 0.00 0.00 59 1017.7
20260831025515 65 352 0.0 1.7 0.00 0.00 0.00 59 1017.8
20260831025015 65 352 0.0 1.7 0.00 0.00 0.00 59 1017.8
20260831024530 65 321 0.0 0.0 0.00 0.00 0.00 58 1017.8
20260831024022 65 336 0.0 0.9 0.00 0.00 0.00 58 1017.8
20260831023508 65 300 0.0 0.9 0.00 0.00 0.00 58 1017.9
20260831023023 65 9 0.0 1.7 0.00 0.00 0.00 58 1017.9
20260831022515 66 9 0.0 1.7 0.00 0.00 0.00 57 1017.8
20260831022011 66 22 0.0 1.7 0.00 0.00 0.00 56 1017.8
20260831021544 66 352 0.0 1.7 0.00 0.00 0.00 56 1018.0
20260831021013 66 301 0.0 2.6 0.00 0.00 0.00 56 1018.0
20260831020513 66 270 0.9 2.6 0.00 0.00 0.00 55 1018.0
20260831020025 67 335 0.9 3.5 0.00 0.00 0.00 54 1018.0
20260831015519 67 5 0.9 3.5 0.00 0.00 0.00 54 1018.0
20260831015017 67 311 1.7 4.3 0.00 0.00 0.00 53 1018.0
20260831014530 67 9 1.7 4.3 0.00 0.00 0.00 53 1018.1
20260831014016 67 5 0.9 2.6 0.00 0.00 0.00 51 1018.1
20260831013516 67 344 0.9 2.6 0.00 0.00 0.00 51 1018.2
20260831013030 68 319 0.9 2.6 0.00 0.00 0.00 51 1018.2
20260831012518 68 279 0.0 2.6 0.00 0.00 0.00 53 1018.2
20260831012009 68 281 0.9 2.6 0.00 0.00 0.00 52 1018.3
20260831011517 68 265 0.0 1.7 0.00 0.00 0.00 51 1018.3
20260831011012 68 259 0.0 2.6 0.00 0.00 0.00 51 1018.3
20260831010512 68 338 0.9 2.6 0.00 0.00 0.00 51 1018.3
20260831010041 68 290 0.0 2.6 0.00 0.00 0.00 50 1018.4
20260831005504 69 275 0.9 2.6 0.00 0.00 0.00 50 1018.4
20260831005004 69 306 0.9 3.5 0.00 0.00 0.00 51 1018.4
20260831004506 68 5 0.9 3.5 0.00 0.00 0.00 50 1018.4
20260831004009 68 268 0.9 5.2 0.00 0.00 0.00 49 1018.5
20260831003504 68 265 2.6 5.2 0.00 0.00 0.00 49 1018.6
20260831003009 69 310 1.7 5.2 0.00 0.00 0.00 49 1018.6
20260831002507 68 302 1.7 7.0 0.00 0.00 0.00 48 1018.6
20260831002012 69 247 2.6 7.0 0.00 0.00 0.00 49 1018.6
20260831001529 68 336 0.9 7.0 0.00 0.00 0.00 51 1018.6
20260831001009 68 317 1.7 7.0 0.00 0.00 0.00 51 1018.7
20260831000511 68 343 1.7 7.0 0.00 0.00 0.00 51 1018.7
20260831000021 68 321 1.7 7.0 0.00 0.00 0.00 51 1018.8
20260830235512 69 312 3.5 7.0 0.00 0.00 0.00 49 1018.8
20260830235003 69 292 1.7 6.1 0.00 0.00 0.00 48 1018.9
20260830234504 70 306 0.9 7.0 0.00 0.00 0.00 48 1018.9
20260830234007 70 286 1.7 7.0 0.00 0.00 0.00 48 1019.1
20260830233505 70 176 1.7 3.5 0.00 0.00 0.00 46 1019.1
20260830233007 70 328 0.0 3.5 0.00 0.00 0.00 47 1019.1
20260830232505 69 292 0.9 5.2 0.00 0.00 0.00 50 1019.1
20260830232009 69 290 2.6 5.2 0.00 0.00 0.00 49 1019.1
20260830231526 69 331 2.6 5.2 0.00 0.00 0.00 51 1019.2
20260830231008 69 290 1.7 5.2 0.00 0.00 0.00 51 1019.2
20260830230512 69 250 1.7 5.2 0.00 0.00 0.00 51 1019.2
20260830230018 70 184 0.9 6.1 0.00 0.00 0.00 53 1019.1
20260830225511 68 127 0.9 6.1 0.00 0.00 0.00 53 1019.2
20260830225013 68 294 1.7 5.2 0.00 0.00 0.00 53 1019.2
20260830224524 69 273 1.7 5.2 0.00 0.00 0.00 54 1019.3
20260830224012 68 286 0.9 5.2 0.00 0.00 0.00 55 1019.3
20260830223504 69 289 2.6 5.2 0.00 0.00 0.00 54 1019.4
20260830223012 70 284 1.7 5.2 0.00 0.00 0.00 53 1019.5
20260830222504 68 302 1.7 5.2 0.00 0.00 0.00 53 1019.5
20260830222008 69 176 0.9 3.5 0.00 0.00 0.00 55 1019.6
20260830221512 69 281 2.6 5.2 0.00 0.00 0.00 52 1019.7
20260830221010 69 208 1.7 6.1 0.00 0.00 0.00 54 1019.6
20260830220508 69 242 0.9 6.1 0.00 0.00 0.00 55 1019.6
20260830220022 69 182 2.6 6.1 0.00 0.00 0.00 53 1019.6
20260830215510 68 215 1.7 6.1 0.00 0.00 0.00 55 1019.6
20260830215013 69 134 2.6 6.1 0.00 0.00 0.00 53 1019.6
20260830214528 68 158 3.5 6.1 0.00 0.00 0.00 54 1019.6
20260830214012 69 311 0.9 5.2 0.00 0.00 0.00 53 1019.8
20260830213517 68 213 1.7 7.0 0.00 0.00 0.00 56 1019.8
20260830213028 67 151 2.6 7.0 0.00 0.00 0.00 56 1019.9
20260830212516 67 92 2.6 5.2 0.00 0.00 0.00 55 1019.9
20260830212004 67 205 1.7 5.2 0.00 0.00 0.00 57 1020.0
20260830211517 67 126 1.7 5.2 0.00 0.00 0.00 57 1020.0
20260830211008 68 184 1.7 4.3 0.00 0.00 0.00 56 1020.1
20260830210508 69 193 0.9 6.1 0.00 0.00 0.00 57 1020.1
20260830210014 67 140 2.6 6.1 0.00 0.00 0.00 60 1020.1
20260830205513 67 59 0.9 6.1 0.00 0.00 0.00 60 1020.2
20260830205008 66 155 2.6 7.0 0.00 0.00 0.00 60 1020.2
20260830204519 67 207 1.7 7.0 0.00 0.00 0.00 61 1020.2
20260830204012 68 134 1.7 4.3 0.00 0.00 0.00 60 1020.3